Location: Atherton
(17.2661°S, 145.4859°E)
Time: 17:06:15
(UTC+10:00)

ACS3 Solar Sail - Pass Details

Date: 21 May 2025
Orbit: 920 x 1019 km, 97.5° (Epoch: 20 June)

Event Time Altitude Azimuth Distance (km) Brightness Sun altitude
Rises 04:34:52 0° 41° (NE) 3,547 5.5 -28.7°
Reaches altitude 10° 04:37:43 10° 54° (NE) 2,616 4.9 -28.0°
Maximum altitude 04:42:18 24° 107° (ESE) 1,816 3.7 -27.0°
Drops below altitude 10° 04:46:58 10° 158° (SSE) 2,667 4.2 -25.9°
Sets 04:49:52 0° 171° (S) 3,632 4.7 -25.2°
